SCP
2 3 3 3 3 2 2 2 2 2 2 2 2 1 1 1 1 1 1 1 1 1 1 1 0 0 0 0 0 0 0 0 0 0 0 0 0 0 0 0 0 0 0
2 3 3 3 3 2 2 2 2 3 3 2 2 1 1 1 1 1 1 1 1 1 1 1 1 1 0 0 0 0 0 0 0 0 0 0 0 0 0 0 0 0 0
3 3 3 4 3 3 3 3 3 3 3 2 2 2 1 1 1 1 1 1 1 1 1 1 1 1 1 1 1 0 1 1 1 1 1 1 1 0 0 0 0 0 0
3 3 4 4 4 4 3 3 3 3 3 2 2 2 2 2 2 1 1 1 1 1 1 1 1 1 1 1 1 1 1 1 1 1 1 1 1 1 0 0 0 0 0
3 4 5 5 5 5 4 3 3 3 3 3 2 3 3 3 3 2 2 2 2 2 2 2 2 2 1 1 1 1 1 2 2 2 2 2 2 1 1 0 0 0 0
3 4 5 6 6 6 5 4 3 3 3 3 3 3 3 3 3 3 3 3 2 2 2 2 2 2 2 2 2 2 2 2 2 2 2 2 2 2 1 1 0 0 0
4 4 6 7 7 6 5 4 3 3 3 3 3 4 3 3 3 3 3 3 3 2 2 2 2 2 2 2 2 2 2 2 2 2 2 2 2 2 1 1 1 0 0
4 4 6 7 7 5 4 3 4 3 3 3 3 3 3 3 3 2 2 2 2 2 2 2 2 2 2 2 2 2 2 2 2 2 1 1 2 1 1 1 1 1 0
4 4 5 6 6 5 3 3 3 4 3 3 3 2 2 2 2 2 2 2 2 2 2 2 2 2 2 2 2 2 2 2 2 1 1 1 1 1 1 1 1 1 1
4 4 4 4 4 4 3 2 3 4 4 3 2 2 2 2 2 2 2 2 2 2 2 2 2 2 2 2 2 1 1 1 1 1 1 1 1 1 1 1 1 1 1
5 4 4 3 3 3 3 3 3 3 4 3 3 2 2 2 2 2 2 2 2 2 2 2 2 2 2 1 1 1 1 1 1 1 1 1 1 1 1 1 1 1 1
5 4 4 3 3 3 3 3 3 4 4 4 3 3 2 2 2 2 2 2 2 2 2 2 2 2 2 2 1 1 1 1 1 1 2 2 1 1 1 1 1 1 1
4 4 4 4 3 3 3 3 4 4 5 5 4 4 3 3 3 3 3 3 3 3 3 3 3 3 2 2 2 2 2 2 2 2 2 2 2 1 1 1 2 2 2
4 4 4 3 3 4 4 5 5 5 5 5 5 4 3 3 4 4 4 5 5 4 4 3 3 3 3 3 3 3 3 3 2 2 2 2 2 2 2 2 2 2 3
3 3 3 3 3 3 5 6 6 6 6 5 5 4 3 4 4 4 5 6 7 7 6 5 4 4 4 4 4 4 4 4 3 3 3 2 2 2 2 2 2 3 3
3 3 3 2 2 3 5 6 7 7 7 7 6 4 4 4 4 4 5 7 9 9 9 8 7 5 5 5 5 5 5 5 5 4 4 3 3 3 2 2 3 3 4
2 2 2 2 2 3 5 6 8 9 9 8 7 6 5 4 4 4 5 7 8 10 10 10 9 8 6 5 4 5 6 6 6 5 5 4 4 3 3 3 3 3 3
2 2 2 2 2 3 4 5 7 9 10 10 9 7 6 5 4 4 5 6 7 9 10 10 10 10 8 6 5 5 6 7 7 7 7 6 6 5 5 4 4 4 3
2 2 2 2 3 3 3 4 5 8 9 10 10 9 8 6 4 4 4 5 5 7 8 10 11 11 10 8 5 5 7 8 9 9 9 8 7 7 6 6 5 4 3
2 2 2 2 2 2 2 3 5 7 9 10 11 11 9 6 4 4 4 4 4 5 6 8 10 11 11 9 6 6 9 10 10 10 10 9 8 7 6 6 6 3 2
3 2 2 2 2 1 1 2 4 7 8 8 8 8 7 5 4 4 3 3 3 4 5 6 8 10 11 10 7 6 8 10 11 11 12 11 8 6 4 5 5 2 1
4 4 3 3 3 2 2 2 3 6 7 6 5 5 5 4 4 3 3 3 3 4 5 6 7 9 10 10 7 5 5 8 10 12 12 10 7 3 2 2 2 1 0
6 6 5 6 6 6 5 4 4 5 5 5 4 4 4 4 4 4 3 3 4 5 6 7 9 10 11 9 7 4 3 4 7 9 8 6 3 1 0 0 0 0 0
7 6 6 7 7 7 7 6 6 6 6 6 6 5 4 5 6 6 5 4 5 6 8 10 12 13 10 7 5 4 3 2 3 3 3 2 1 0 0 0 0 0 0
6 5 5 5 5 6 7 7 8 8 8 7 6 5 4 6 8 8 6 5 5 8 10 13 14 12 7 4 3 3 2 2 1 1 1 1 1 1 0 0 0 0 0
6 4 3 3 3 4 5 7 9 10 9 8 7 4 4 7 9 7 5 4 5 8 11 13 13 9 4 2 1 1 2 1 1 1 1 1 1 1 1 1 0 0 0
Wind_Speed
7 7 8 8 7 6 6 5 5 4 3 2 2 2 1 1 1 1 2 3 3 3 3 2 2 2 2 2 3 3 3 2 2 2 1 1 1 1 2 2 3 4 5
7 7 7 7 7 7 6 6 5 5 4 3 2 2 2 1 1 1 1 1 2 3 3 3 2 2 2 2 2 3 2 1 2 2 2 1 2 2 1 2 3 4 3
11 9 8 7 7 7 7 7 6 5 5 4 2 2 2 1 1 1 0 0 1 2 2 2 3 2 3 3 2 3 3 2 1 1 3 2 2 1 2 1 2 3 3
9 8 8 7 8 7 7 6 6 6 5 4 4 4 3 2 2 1 1 0 1 2 2 2 3 2 2 2 2 2 2 3 2 1 1 2 3 2 1 2 1 2 3
9 9 9 9 7 7 6 5 6 5 4 4 4 4 3 2 1 1 1 1 1 1 1 2 2 2 2 2 2 2 2 2 2 2 1 1 1 2 2 2 2 1 2
8 8 8 7 5 5 5 5 6 5 4 5 4 4 4 3 3 2 1 0 0 0 1 2 2 2 2 2 2 2 2 2 2 1 1 2 2 2 2 2 2 2 2
8 8 8 7 7 6 5 5 6 4 4 4 4 4 4 4 4 3 2 2 1 1 1 1 1 1 2 2 2 2 1 2 1 1 1 1 2 2 2 2 2 2 2
7 7 8 8 8 7 6 6 6 5 4 4 4 4 4 3 2 3 3 2 2 2 1 1 1 1 1 1 1 1 1 1 1 2 1 1 2 1 2 2 2 1 2
6 6 6 7 7 7 7 7 6 5 4 4 4 3 3 3 3 2 2 2 2 1 1 1 1 1 1 1 1 1 1 1 1 2 1 1 1 1 1 2 3 3 2
5 5 5 5 6 6 6 5 6 6 5 4 4 3 3 3 3 2 2 2 2 1 1 1 1 1 1 1 1 1 1 1 1 1 1 1 2 1 1 1 1 2 3
5 5 4 4 4 4 5 5 5 5 4 3 3 3 2 2 2 2 2 2 2 2 2 2 1 1 1 1 1 1 1 1 2 1 1 2 2 1 1 1 1 2 2
6 5 4 4 3 4 4 5 5 5 5 4 3 2 2 2 2 2 2 1 2 2 2 1 1 1 1 1 2 2 1 1 2 2 2 2 1 1 1 1 2 2 2
5 5 5 4 3 3 3 4 4 4 4 4 4 3 2 2 2 2 2 2 2 1 1 1 1 1 1 1 1 2 2 2 2 2 2 3 1 2 2 1 2 2 2
5 5 5 4 3 3 3 3 3 3 4 4 4 3 3 3 3 2 2 2 2 2 2 1 1 1 1 1 1 1 1 1 1 2 3 3 3 3 3 2 3 2 2
5 6 5 4 3 3 2 2 2 3 3 4 3 3 3 2 2 2 2 2 2 2 2 1 1 0 1 0 1 1 1 1 1 2 2 2 2 3 2 2 2 1 1
6 5 5 5 4 3 3 2 2 2 3 3 3 2 2 2 2 2 2 2 1 1 2 1 1 0 0 1 1 1 1 1 1 2 2 2 1 2 2 3 3 2 2
6 5 4 5 5 4 3 3 2 2 2 2 2 2 2 2 2 2 1 2 2 2 2 1 1 1 0 0 1 2 1 0 1 2 2 2 2 2 2 3 3 3 3
5 5 4 4 4 4 4 3 3 2 2 2 2 2 2 2 1 2 1 1 2 2 2 2 2 1 0 0 1 1 1 1 2 2 2 2 2 2 2 2 2 3 3
4 4 4 4 4 4 4 4 3 2 1 1 1 2 2 2 2 2 2 2 1 1 1 1 1 1 1 1 1 1 0 1 2 2 1 1 1 3 2 1 2 3 3
3 3 3 4 3 3 4 4 2 2 1 1 2 2 2 2 2 2 2 1 2 2 1 1 1 1 1 2 2 1 0 1 2 2 2 1 2 2 1 1 2 2 3
3 4 5 4 3 3 4 3 2 2 2 1 1 1 2 3 2 1 2 2 2 1 1 1 1 1 1 1 1 1 0 1 2 2 2 2 3 3 3 2 2 4 3
2 3 4 3 2 3 4 3 2 2 1 1 1 0 1 1 2 2 1 1 2 2 1 0 1 1 1 1 1 1 1 1 1 2 2 2 3 3 3 2 2 3 2
2 2 4 3 2 2 3 3 2 1 1 1 1 1 1 1 1 2 2 2 2 2 1 1 1 1 1 1 2 2 2 2 1 2 2 3 3 3 2 3 3 2 1
2 2 3 3 1 1 2 2 2 2 2 2 1 1 1 2 1 1 2 2 2 2 2 2 2 1 1 1 1 1 2 2 2 1 2 3 3 2 2 3 3 1 1
1 2 3 3 2 2 1 2 2 2 2 2 2 1 1 2 1 1 2 2 2 4 4 4 3 2 2 3 2 1 1 1 1 1 1 2 2 3 3 2 2 2 2
2 2 2 2 2 1 1 1 1 2 1 1 2 1 1 1 1 1 0 1 1 2 4 4 4 3 4 3 2 2 1 1 1 2 1 1 1 1 2 2 2 2 2
Wind_Direction
172 165 164 160 156 161 162 163 160 164 148 133 127 124 131 144 135 158 168 169 169 168 157 157 151 141 143 157 153 140 131 144 135 101 38 353 320 213 217 203 193 202 209
168 174 168 163 162 167 171 169 171 170 167 164 163 156 155 162 166 182 147 170 169 174 170 163 163 151 141 141 147 143 133 149 140 133 110 13 342 320 234 205 197 204 202
175 176 171 171 170 173 177 175 176 171 170 163 138 116 89 58 48 44 38 191 155 147 146 154 155 148 149 152 159 158 154 161 191 164 151 157 221 292 315 263 223 209 203
172 173 172 176 180 181 179 173 172 171 170 158 147 147 144 155 187 179 159 70 106 124 138 142 144 147 145 150 165 150 158 154 181 228 203 185 168 174 292 324 289 238 222
174 176 176 176 175 172 169 170 163 165 162 154 155 151 148 158 143 126 98 80 66 107 140 147 141 144 148 158 164 143 139 155 173 191 192 182 173 173 174 253 287 299 257
172 174 172 162 159 160 161 162 158 163 163 160 159 157 158 155 143 147 155 171 112 58 134 145 141 153 155 164 180 165 156 171 167 185 184 177 177 187 185 211 240 265 278
167 164 161 164 166 163 163 159 157 158 165 162 164 164 165 165 169 180 179 174 169 208 208 174 158 168 176 168 167 157 174 187 179 203 221 209 210 191 182 181 216 249 282
157 159 163 166 168 168 169 166 167 166 170 164 167 164 161 167 179 186 180 184 190 209 201 182 182 186 187 179 163 165 200 195 203 222 227 229 241 206 180 180 175 231 291
151 155 163 166 166 166 172 175 170 165 173 174 165 162 165 171 181 185 176 175 189 193 182 184 186 199 186 180 168 190 216 194 211 224 219 233 251 223 209 194 179 181 235
151 155 158 166 171 171 167 165 164 172 177 173 171 163 170 176 177 164 169 180 194 196 176 168 168 175 170 174 176 223 235 219 237 222 223 249 241 242 231 206 212 193 200
157 160 158 154 155 156 156 159 162 160 159 167 166 161 163 167 161 169 182 189 191 180 184 189 190 190 190 197 198 239 242 236 262 268 243 260 254 254 255 226 232 230 204
135 130 121 112 119 133 152 158 161 166 167 170 152 153 153 158 169 184 198 187 191 191 188 181 193 202 194 194 200 234 252 239 249 258 254 263 264 269 267 253 249 242 223
122 116 110 112 122 136 146 160 166 169 164 154 150 157 167 174 189 195 195 184 178 171 162 151 177 202 200 196 217 217 243 242 244 243 241 256 258 264 262 260 261 263 261
131 127 126 132 129 122 133 143 151 153 146 148 156 167 186 196 199 193 190 190 177 166 173 174 191 201 196 193 231 231 228 242 259 256 246 244 239 240 240 247 251 255 262
127 139 142 138 128 119 120 121 129 148 148 148 161 186 190 184 184 185 195 189 178 181 170 138 133 173 170 222 229 227 213 232 269 287 274 257 254 249 237 242 250 245 246
145 147 145 141 141 138 137 130 118 129 137 144 167 183 175 172 180 188 188 177 175 171 136 137 140 87 354 38 59 145 209 221 240 281 296 290 289 298 267 248 246 219 225
149 147 155 162 159 156 149 140 143 123 109 126 144 154 161 167 184 179 150 161 178 157 149 162 161 182 259 62 89 93 157 229 262 263 280 298 307 299 288 288 289 276 253
150 154 161 163 161 150 146 140 134 129 136 147 154 162 150 166 168 144 149 165 155 158 165 175 190 198 269 9 26 111 206 249 264 257 239 247 282 303 287 278 290 289 289
149 156 163 161 153 146 148 138 129 125 123 160 184 179 163 154 157 166 180 181 156 166 179 177 180 196 272 344 356 48 315 290 285 283 266 234 259 302 309 277 282 296 302
128 126 127 120 123 131 123 115 117 122 162 220 213 191 167 164 180 189 191 191 166 186 195 212 213 203 263 1 15 17 289 294 291 294 289 284 283 294 297 236 245 270 284
122 116 117 121 136 133 121 123 134 178 208 212 215 197 189 183 185 185 193 186 179 177 184 201 241 227 259 311 352 13 174 245 278 296 304 309 322 314 297 246 235 253 263
100 117 122 129 139 132 128 137 186 217 181 162 171 204 229 196 164 160 178 181 174 173 186 197 287 281 280 302 305 335 333 262 229 266 281 298 318 317 319 300 288 291 306
102 127 132 131 131 140 145 161 215 201 148 143 186 229 241 232 200 182 188 193 185 185 204 206 234 280 306 317 332 341 332 341 266 269 295 316 324 323 324 336 339 345 0
110 126 127 134 154 172 172 185 186 164 155 173 217 238 224 227 230 205 190 189 198 197 203 208 215 234 266 305 328 339 333 335 340 329 328 341 347 355 353 355 356 4 319
118 133 144 158 184 189 200 205 175 153 171 196 212 227 234 222 224 230 215 198 204 192 191 203 196 196 233 251 226 196 270 264 270 356 31 29 22 12 0 351 339 342 354
137 124 146 172 191 175 199 222 176 161 176 219 230 224 218 208 200 203 300 35 158 183 174 167 167 202 218 218 214 220 242 243 122 105 64 360 352 343 336 330 330 336 332